Theta_e
324 328 330 335 335 337 338 339 339 341 341 341 341 341 341 340 339 341 341 340 340 339 338 338 338 338 338 336 335 335 340 341
319 322 327 333 337 337 338 338 337 337 338 338 335 338 339 340 337 338 340 340 340 339 338 337 336 336 335 335 335 335 341 340
317 319 324 330 333 335 334 336 336 335 337 336 337 342 342 342 339 339 339 339 339 339 337 336 335 333 334 334 335 342 341 341
315 315 320 323 326 329 330 328 329 332 334 335 340 340 339 337 338 336 338 336 337 336 336 335 334 335 336 332 338 338 339 340
315 317 320 318 323 324 324 325 325 327 328 331 334 337 339 341 342 341 341 338 341 338 337 338 336 334 334 335 334 335 337 338
312 314 317 318 320 320 322 321 321 319 321 324 326 329 331 334 335 341 339 339 339 339 338 338 337 336 335 335 336 338 338 339
309 313 314 315 316 317 318 318 319 320 319 319 322 323 326 326 327 330 336 339 339 338 337 337 337 338 337 336 336 337 339 340
309 310 312 314 314 315 315 315 315 316 316 317 320 320 322 321 323 326 327 332 336 339 336 336 337 337 337 339 339 340 340 341
307 309 311 312 312 313 313 313 314 313 313 315 317 317 318 319 322 322 324 328 330 336 338 337 336 336 336 337 336 337 340 341
307 307 309 310 310 311 311 311 312 312 312 313 315 315 315 315 316 319 322 326 326 327 330 330 331 332 331 333 335 336 338 341
306 307 307 308 310 310 310 311 310 311 311 311 314 314 314 314 314 317 320 319 324 324 325 327 330 331 331 332 332 332 334 335
307 307 307 308 308 309 308 308 308 309 309 310 312 313 312 312 313 315 314 316 317 318 321 323 325 321 325 329 331 331 333 333
306 306 306 306 305 305 305 304 306 307 308 310 311 312 312 311 311 312 312 312 314 314 316 317 322 317 325 326 329 329 331 333
306 306 306 305 305 305 306 306 306 307 308 308 310 310 311 309 310 310 310 308 310 311 311 311 314 317 314 315 319 324 328 331
304 305 306 306 306 305 305 306 306 304 305 305 307 309 310 310 309 310 310 308 306 307 307 306 307 311 315 312 309 310 314 326
305 305 305 305 306 305 304 302 300 303 304 305 305 308 308 309 310 309 309 307 305 304 305 304 306 306 311 310 312 312 308 310
306 306 305 305 305 305 304 303 304 304 304 304 305 306 307 308 309 309 308 307 306 305 304 303 304 306 304 305 308 311 311 308
306 306 306 306 306 305 305 304 303 303 303 302 303 304 305 307 307 307 308 307 306 305 304 302 303 305 306 305 305 305 304 304
305 305 305 306 306 306 305 305 305 304 304 303 303 302 303 304 307 306 305 307 307 305 303 302 301 303 304 304 305 307 307 306
305 305 305 306 306 306 306 306 305 304 304 304 303 303 303 305 306 306 305 306 307 306 304 302 302 301 302 304 304 306 308 306
Wind_Speed
13 13 14 14 14 14 11 10 9 8 8 8 8 8 9 9 9 7 6 4 3 4 4 5 5 6 6 5 5 5 5 4
12 13 13 12 12 16 13 12 12 10 10 9 7 5 6 6 6 7 7 5 5 5 4 4 3 1 3 5 5 5 2 3
14 14 13 12 12 12 13 15 14 14 11 11 5 4 5 4 5 7 6 7 7 6 5 4 4 2 3 3 5 3 3 2
12 11 13 10 8 10 11 10 9 11 11 11 7 6 5 6 6 7 6 4 5 6 6 7 5 4 3 4 4 3 4 3
15 13 13 11 10 7 5 5 7 8 13 12 9 6 7 6 4 4 4 2 3 4 4 3 5 4 4 4 4 5 3 3
15 14 12 13 8 8 9 8 7 7 8 13 8 6 8 7 6 6 4 4 6 5 4 5 5 4 5 6 6 6 4 3
14 13 12 11 12 9 9 10 9 10 10 11 9 8 8 8 7 7 7 7 5 5 5 5 5 5 5 7 8 8 7 5
12 13 12 11 11 12 9 9 10 10 11 12 13 9 8 7 8 8 8 8 8 6 6 5 3 4 7 7 9 9 9 8
11 10 10 11 11 10 9 9 10 9 10 13 14 13 12 11 9 8 8 7 10 7 7 7 5 2 5 5 6 6 9 11
10 9 10 10 10 9 8 9 9 9 10 10 14 14 14 10 9 9 10 7 7 6 6 4 6 6 4 5 5 5 9 10
11 11 10 8 9 8 9 11 9 9 9 10 13 14 14 10 9 10 11 9 9 9 7 8 7 6 7 8 7 5 6 7
9 8 11 8 5 5 7 8 9 9 9 10 13 11 14 11 10 11 10 8 10 11 11 8 6 7 8 9 8 6 5 6
8 10 9 7 6 6 6 7 8 8 9 11 12 12 13 13 10 11 9 10 10 11 9 11 7 9 4 7 9 8 10 7
6 6 7 7 6 4 3 4 5 5 7 9 10 11 11 11 11 10 11 9 11 12 11 7 6 9 6 5 6 7 6 8
2 4 5 6 7 5 4 2 2 5 7 7 8 9 10 10 11 9 10 9 9 10 11 12 8 6 7 5 4 4 10 4
5 3 2 3 5 5 7 7 7 6 5 5 6 8 9 9 9 10 9 8 9 9 9 8 8 8 4 7 5 4 4 8
5 5 4 2 2 3 3 5 4 4 5 7 8 7 8 9 9 9 8 7 8 9 9 9 6 6 6 5 4 4 5 4
6 7 7 5 3 4 5 5 4 4 5 5 5 5 5 7 8 7 6 6 7 6 7 9 7 6 5 5 5 3 5 4
7 8 9 7 6 6 7 6 6 6 5 5 6 5 4 5 6 6 5 5 5 5 6 6 7 6 6 5 4 4 3 5
8 9 10 8 9 9 8 8 6 5 6 5 5 5 5 5 5 5 5 5 4 4 3 4 5 4 6 5 3 4 6 4
Wind_Direction
30 29 27 32 29 25 18 30 29 29 33 34 35 31 22 17 18 16 14 16 32 40 40 48 81 109 135 139 143 159 136 131
28 29 27 25 31 25 23 31 25 22 15 12 20 15 18 23 358 18 354 351 350 356 11 21 16 54 157 183 168 167 159 153
25 27 27 28 30 25 26 27 35 26 14 8 343 360 357 349 1 338 336 342 340 339 336 336 327 284 262 233 202 215 204 224
21 23 27 28 29 24 31 25 29 27 22 18 9 354 349 329 323 321 315 331 336 344 335 315 277 266 234 224 237 255 241 242
29 31 32 29 30 32 26 30 32 23 22 19 17 12 4 1 348 341 328 318 312 323 323 320 321 296 271 263 268 262 270 254
30 30 32 33 37 41 36 34 28 29 19 13 17 13 8 8 358 359 2 352 331 321 315 317 302 291 276 275 275 278 276 279
30 31 34 34 42 36 35 33 32 29 30 24 14 15 6 9 3 357 3 1 4 351 322 305 302 286 272 271 275 275 276 272
31 33 36 41 43 44 40 37 32 31 30 24 23 23 16 13 5 7 3 360 341 345 355 320 296 298 291 294 296 290 283 268
33 39 38 45 48 46 45 42 39 37 34 30 26 25 18 15 12 10 2 348 351 344 345 348 339 15 325 316 303 298 284 279
42 37 36 44 47 49 47 43 44 37 31 28 26 28 23 18 17 13 0 10 6 2 347 351 301 331 333 321 309 325 319 293
36 33 32 37 50 55 52 44 42 39 34 31 26 27 24 25 20 14 10 8 11 3 359 350 329 326 319 281 283 304 313 314
43 38 27 22 32 45 49 47 42 36 35 29 24 25 25 23 27 23 18 9 13 6 358 356 18 348 305 282 279 289 274 284
33 35 27 27 27 19 28 35 31 35 33 32 28 23 24 27 26 27 20 18 15 10 356 352 5 354 308 312 271 272 301 294
25 33 33 34 32 25 12 10 28 26 28 33 29 27 26 29 27 27 24 18 17 17 11 353 346 12 342 295 301 295 313 310
316 356 14 36 26 24 21 32 19 17 20 24 27 25 27 28 30 27 26 21 19 15 14 13 356 1 28 6 350 341 330 302
251 268 326 31 26 29 25 24 16 6 359 3 15 26 27 23 25 27 28 24 24 16 18 11 2 12 1 10 348 311 331 315
247 263 258 243 28 13 356 18 8 347 350 351 4 11 20 21 19 20 21 24 25 21 17 16 15 13 13 347 342 326 43 300
250 258 266 267 270 283 294 313 341 344 353 348 352 353 360 11 8 10 11 13 16 17 18 22 14 14 10 7 4 354 351 334
239 243 259 256 255 257 258 267 287 302 322 333 330 336 344 349 346 351 354 352 359 7 16 22 14 12 8 356 343 340 352 328
239 247 262 259 253 253 252 258 263 275 282 295 295 299 306 305 307 312 325 325 325 347 356 14 15 9 7 359 345 340 325 328